SCP
0 0 0 0 0 0 0 0 0 0 0 0 0 0 0 0 0 0 0 0 1 1 0 0 0 1 1 1 0 0 0 0 0 0 0 0 0 0 0 0 1 0 1
0 0 0 0 0 0 0 0 0 0 0 0 0 0 0 0 0 0 0 0 0 0 0 0 0 0 1 1 0 0 0 0 0 0 0 0 0 0 0 0 0 0 0
0 0 0 0 0 0 0 0 0 0 0 0 0 0 0 0 0 0 0 0 0 0 0 0 0 0 1 0 0 0 0 0 0 0 0 0 0 0 0 0 1 1 0
0 0 0 0 0 0 0 0 0 0 0 0 0 0 0 0 0 -0 0 0 0 0 0 0 0 0 0 0 0 0 0 1 1 0 0 0 0 0 0 0 0 0 0
0 0 0 0 0 0 0 0 0 0 0 0 0 0 0 0 0 0 0 0 0 0 0 0 0 0 0 0 0 0 0 0 0 0 0 0 0 0 0 0 0 0 0
0 0 0 0 0 0 0 0 0 0 0 0 0 0 0 0 0 0 0 0 0 0 0 0 -0 -0 0 -0 -0 -0 0 0 0 0 0 0 0 0 0 0 0 0 0
0 0 0 0 0 0 0 0 0 0 0 0 0 0 0 0 0 0 0 0 0 0 0 0 -0 -0 -0 -0 -0 0 -0 -0 0 0 0 0 0 0 0 0 0 0 0
0 0 0 0 0 0 0 0 0 0 0 0 0 0 0 0 0 0 0 0 0 0 0 0 0 0 0 0 0 -0 0 0 0 -0 0 -0 0 0 0 0 0 0 0
0 0 0 0 0 0 0 0 0 0 0 0 0 0 0 0 0 0 0 0 0 0 0 0 0 0 0 0 0 0 0 -0 -0 -0 -0 -0 -0 0 0 0 0 0 0
0 0 0 0 0 0 0 0 0 0 0 0 0 0 0 0 0 0 0 0 0 0 0 0 0 0 0 0 0 0 0 0 0 0 0 0 0 0 0 0 0 0 0
0 0 0 0 0 0 0 0 0 0 0 0 0 0 0 0 0 0 0 0 0 0 0 0 0 0 0 0 0 0 0 0 0 0 0 0 0 0 0 0 0 0 0
0 0 0 0 0 0 0 0 0 0 0 0 0 0 0 0 0 0 0 0 0 0 0 0 0 0 0 0 0 0 0 0 0 0 0 0 0 0 0 0 0 0 0
0 0 0 0 0 0 0 0 0 0 0 0 0 0 0 0 0 0 0 0 0 0 0 0 0 0 0 0 0 0 0 0 0 0 0 0 0 0 0 0 0 0 0
0 0 0 0 0 0 0 0 0 0 0 0 0 0 0 0 0 0 0 0 0 0 0 0 0 0 0 0 0 0 0 0 0 0 0 0 0 0 0 0 0 0 0
0 0 0 0 0 0 0 0 0 0 0 0 0 0 0 0 0 0 0 0 0 0 0 0 0 0 0 0 0 0 0 0 0 0 0 0 0 0 0 0 0 0 0
0 0 0 0 0 0 0 0 0 0 0 0 0 0 0 0 0 0 0 0 -0 -0 -0 0 0 0 0 0 0 -0 0 0 0 0 0 0 0 0 0 0 0 0 0
0 0 0 0 0 0 0 0 0 0 0 0 0 0 0 0 0 0 0 -0 -0 -0 -0 -0 0 -0 0 -0 -0 0 0 0 0 0 0 0 0 0 0 0 0 0 0
0 0 0 0 0 0 0 0 0 0 0 0 0 0 0 0 0 0 0 0 0 -0 -0 0 0 -0 -0 -0 -0 -0 -0 -0 0 0 0 0 0 0 0 0 0 0 0
0 0 0 0 0 0 0 0 0 0 0 0 0 0 0 0 0 0 0 0 0 0 0 -0 -0 -0 -0 0 -0 0 0 0 0 0 0 0 0 0 0 0 0 0 0
0 0 0 0 0 0 0 0 0 0 0 0 0 0 0 0 0 0 0 0 0 0 0 0 -0 -0 0 0 0 0 0 0 0 0 0 0 0 0 0 0 0 0 0
0 0 0 0 0 0 0 0 0 0 0 0 0 0 0 0 0 0 0 0 0 0 -0 0 0 0 0 0 0 0 0 0 0 0 0 0 0 0 0 0 0 0 0
0 0 0 0 0 0 0 0 0 0 0 0 0 0 0 0 0 0 0 0 0 0 0 0 -0 -0 0 0 0 0 0 0 0 0 0 0 0 0 0 0 0 0 0
0 0 0 0 0 0 0 0 0 0 0 0 0 0 0 0 0 0 0 0 0 0 0 0 0 0 -0 0 0 0 0 -0 -0 -0 0 0 0 0 0 0 0 -0 0
0 0 0 0 0 0 0 0 0 0 0 0 0 0 0 0 0 0 0 0 0 0 0 0 0 0 0 0 0 0 0 -0 0 0 0 0 -0 0 0 -0 0 -0 0
0 0 0 0 0 0 0 0 0 0 0 0 0 0 0 0 0 0 0 0 0 0 0 0 0 0 0 0 0 0 0 0 -0 0 0 0 -0 0 0 0 0 0 0
0 0 0 1 0 1 0 0 0 0 0 0 0 0 0 0 0 0 0 0 0 0 0 0 0 0 0 0 0 0 0 0 0 0 0 -0 0 0 -0 0 0 0 0
Wind_Speed_500mb
26 25 28 29 31 32 31 30 29 30 28 26 25 24 25 26 26 27 33 37 34 38 44 57 61 57 64 48 42 35 32 30 31 31 33 31 29 25 25 23 23 20 28
31 26 29 31 33 32 33 32 33 30 27 26 26 27 26 25 24 26 27 36 36 34 36 43 50 65 70 58 42 37 33 30 27 25 25 26 30 28 26 25 22 23 19
32 29 29 30 33 31 32 32 32 30 28 27 27 27 26 24 23 24 27 25 30 32 35 41 44 49 46 59 45 40 37 32 26 23 21 20 20 25 28 27 24 19 19
33 28 27 29 28 28 29 30 30 31 30 28 29 27 24 25 22 22 18 19 26 22 27 30 28 45 47 41 59 46 46 45 31 21 19 19 18 21 23 27 26 21 17
31 28 27 28 29 27 28 31 31 29 29 32 33 26 22 19 21 20 25 27 25 18 18 29 32 58 71 65 31 37 57 43 34 30 21 19 17 16 16 17 22 24 22
31 31 26 29 29 27 28 38 32 31 31 29 31 30 24 10 16 20 19 18 23 13 17 21 27 29 56 35 38 43 36 47 32 47 36 22 17 15 15 16 18 20 24
31 30 27 28 30 27 32 36 35 32 31 34 32 26 11 6 10 14 13 15 22 14 14 17 15 7 6 22 16 17 26 29 7 33 38 27 14 16 19 19 21 23 26
30 28 31 28 30 27 31 36 36 31 26 30 29 27 14 4 22 18 15 16 14 11 10 12 7 3 4 7 10 3 13 7 22 36 16 19 22 26 25 26 26 28 28
26 29 31 30 35 29 32 30 31 29 24 22 25 20 17 17 34 24 12 15 16 14 10 6 8 2 2 5 12 14 14 12 14 19 14 21 25 30 33 31 30 31 32
26 29 29 33 32 29 39 34 31 25 26 23 21 19 16 21 17 20 25 22 18 19 17 8 2 4 0 5 11 13 5 13 16 20 24 28 31 33 38 33 34 33 33
24 28 26 27 30 28 38 35 28 31 26 24 21 25 20 20 16 26 30 31 25 18 15 13 14 14 7 7 9 8 12 19 20 27 26 28 30 34 36 36 39 41 41
20 31 24 25 26 28 30 30 34 30 25 25 24 22 22 23 24 22 24 26 24 20 17 18 13 5 4 9 9 16 19 21 22 26 29 30 31 33 35 38 42 41 43
21 25 23 23 24 27 27 31 26 27 27 24 28 28 24 23 28 27 22 22 21 18 17 14 14 2 5 8 12 18 26 19 22 27 30 31 33 32 33 34 37 39 44
21 24 21 20 22 25 29 24 26 27 34 28 31 28 23 25 28 31 26 26 27 19 14 8 7 4 5 11 22 20 15 27 21 21 24 26 29 35 36 36 38 39 43
19 22 21 20 20 23 23 25 24 29 30 29 29 29 33 24 25 28 27 25 23 20 21 13 12 6 4 9 24 16 13 23 18 16 17 20 25 30 35 40 41 43 44
19 23 23 21 20 23 27 26 26 25 30 30 29 31 33 34 29 27 24 26 24 23 17 21 18 15 10 12 23 20 17 27 27 29 31 30 29 30 35 39 41 42 41
20 20 22 22 22 22 25 28 28 30 29 29 27 26 29 31 31 33 27 21 21 25 28 29 25 20 17 16 15 23 25 28 25 32 37 37 37 40 42 45 48 51 51
22 21 21 22 22 24 25 28 28 29 32 28 25 25 26 28 30 31 29 26 27 26 23 26 24 26 24 20 21 24 21 20 20 24 32 35 32 31 33 36 40 47 52
23 23 23 23 23 24 25 27 29 30 31 30 26 25 25 24 25 26 24 26 26 29 25 25 26 25 26 26 29 24 24 24 20 22 36 36 35 39 38 39 43 50 52
23 24 25 26 27 27 26 27 29 32 32 32 33 27 25 25 24 25 22 22 28 25 28 28 30 28 24 26 21 21 22 23 27 25 30 35 36 41 39 44 59 59 60
22 26 27 28 29 31 32 32 39 37 38 39 36 33 28 29 40 33 29 27 30 26 26 29 30 29 30 24 23 26 30 30 31 30 28 28 38 36 33 44 75 63 60
25 26 27 30 33 33 35 43 44 47 47 42 39 39 33 37 38 35 38 31 29 34 31 26 28 31 30 26 24 26 28 36 40 28 28 32 34 30 44 63 61 53 54
31 32 32 31 34 36 38 50 54 49 50 45 42 43 39 31 36 32 32 38 42 37 33 33 34 27 24 22 25 29 30 32 36 29 27 32 39 41 46 67 49 52 43
34 36 36 38 41 41 44 52 56 53 51 43 43 45 46 41 37 37 35 37 38 38 35 34 32 27 25 27 30 31 38 41 48 38 22 31 34 40 51 61 37 44 35
38 41 41 47 50 54 50 53 52 48 39 43 39 43 43 40 38 40 44 42 42 42 32 33 39 36 34 33 39 45 37 31 32 25 18 25 37 32 47 44 32 45 35
46 44 50 55 59 62 61 53 53 47 40 41 38 41 47 42 36 41 45 44 44 41 38 33 32 34 32 33 31 34 31 25 30 32 25 31 34 36 55 35 44 39 31
Wind_Direction_500mb
1 358 354 352 347 346 342 339 336 336 339 337 332 319 306 295 295 295 299 284 276 265 262 246 240 242 235 231 237 228 225 221 219 224 227 228 230 232 237 238 233 231 232
359 357 351 350 345 349 345 341 336 335 333 329 328 327 323 311 295 293 288 303 293 282 276 259 245 241 243 224 232 222 220 212 205 207 216 221 227 228 230 234 237 233 228
355 5 349 349 347 355 352 348 347 343 334 330 327 330 330 324 313 307 302 285 295 296 280 264 248 236 228 226 219 218 212 206 209 204 212 218 220 223 224 229 231 230 226
353 7 352 352 2 356 354 353 350 348 345 339 328 328 328 334 329 318 321 301 289 281 311 274 264 242 225 228 219 214 211 201 199 213 222 224 217 221 221 223 228 226 214
359 9 355 357 14 356 355 355 354 348 345 339 334 326 320 333 336 333 332 323 303 279 302 311 292 257 260 319 305 227 205 197 207 204 208 210 206 201 205 218 226 223 216
1 4 1 1 7 353 351 353 4 350 348 337 339 327 301 296 330 342 336 335 343 308 307 313 336 269 239 298 297 294 198 210 231 205 196 196 209 218 221 227 237 235 224
1 1 3 0 1 4 353 352 355 351 351 344 341 335 320 2 343 343 348 347 346 351 347 347 327 347 255 292 332 282 279 240 239 203 191 176 214 248 257 256 255 248 243
2 5 8 357 4 5 349 353 356 354 354 353 352 338 338 320 354 329 320 332 325 350 5 335 351 53 183 189 178 296 268 306 244 263 306 287 276 265 270 270 264 257 249
6 5 5 354 15 5 353 353 353 351 359 5 12 6 354 351 335 337 324 328 329 329 347 352 334 12 197 127 160 162 166 176 188 217 210 228 265 274 277 272 263 254 251
4 9 6 359 0 8 343 355 356 8 7 7 9 3 347 316 325 328 324 315 318 313 298 285 276 288 114 222 226 228 242 232 228 232 240 245 249 259 265 262 258 259 257
357 0 5 6 360 5 350 352 7 7 3 1 356 347 349 337 334 330 326 324 313 288 268 279 269 251 228 238 240 251 225 236 242 252 250 254 254 250 254 255 256 260 264
351 335 6 7 1 4 356 359 8 8 1 360 1 358 344 339 335 331 327 329 327 326 312 299 278 267 281 317 298 285 279 276 269 265 262 261 261 260 257 258 261 260 261
340 339 359 360 5 3 5 8 2 13 0 358 354 352 349 337 331 332 322 324 309 317 310 290 314 333 289 263 280 301 300 284 273 269 265 262 264 265 266 264 263 263 264
333 336 344 351 358 2 5 18 354 4 2 3 354 349 358 345 335 334 336 332 328 336 298 306 274 309 311 267 280 290 306 290 288 279 279 276 267 266 268 269 272 273 271
330 326 333 335 346 352 355 7 356 357 355 354 349 341 349 346 337 337 335 330 333 327 331 332 323 298 266 318 293 295 284 289 290 295 298 296 284 272 270 275 274 275 275
320 328 325 323 332 335 343 349 357 351 350 353 353 352 357 350 346 332 334 331 331 331 321 335 323 320 291 291 287 291 272 280 297 293 297 291 289 288 287 280 280 278 276
317 318 321 318 319 325 329 334 341 341 336 349 348 345 354 347 355 349 331 327 329 327 321 328 338 323 322 310 277 286 287 279 273 291 290 293 291 291 287 283 282 278 276
308 312 313 315 313 315 319 328 332 332 333 330 337 341 343 340 348 348 357 335 325 322 315 309 315 315 319 313 309 308 295 295 297 279 287 297 300 296 293 295 291 284 278
300 307 309 309 310 308 314 321 322 325 325 323 319 322 326 333 341 338 348 345 338 329 322 310 317 306 297 291 305 313 305 295 287 287 302 305 312 311 303 299 295 293 287
299 300 306 305 304 305 307 307 316 308 310 315 312 302 301 310 310 319 329 340 329 329 324 317 312 306 298 292 296 289 301 293 297 300 295 303 301 316 312 304 313 302 287
291 298 297 303 310 307 307 296 298 300 303 305 305 304 300 283 293 305 311 311 313 317 319 321 317 320 319 313 312 307 308 316 308 301 301 303 308 303 299 298 305 303 294
285 289 292 297 303 302 299 304 312 303 303 302 297 298 295 300 307 303 311 308 307 299 293 301 314 314 322 323 323 317 314 320 318 314 305 304 307 294 292 306 307 304 293
281 281 284 288 292 295 301 303 309 306 299 298 293 291 293 291 290 286 290 309 313 309 291 286 286 290 299 306 305 310 311 317 308 300 299 298 309 304 308 324 308 313 301
291 289 285 284 288 292 294 299 306 303 298 293 297 291 287 287 286 286 291 293 296 297 297 281 293 282 289 294 295 298 304 311 308 310 286 292 317 308 307 322 313 319 310
291 291 288 287 286 289 292 290 298 299 291 290 292 287 304 286 285 288 295 292 295 295 295 284 281 280 281 286 289 289 292 307 306 320 326 312 321 312 321 327 315 334 319
290 290 289 287 286 286 288 288 287 288 285 289 291 294 291 300 296 296 294 296 293 294 295 290 276 279 287 286 289 274 281 293 297 304 310 322 319 313 336 333 326 333 329
Wind_Speed_850mb
26 25 28 29 31 32 31 30 29 30 28 26 25 24 25 26 26 27 33 37 34 38 44 57 61 57 64 48 42 35 32 30 31 31 33 31 29 25 25 23 23 20 28
31 26 29 31 33 32 33 32 33 30 27 26 26 27 26 25 24 26 27 36 36 34 36 43 50 65 70 58 42 37 33 30 27 25 25 26 30 28 26 25 22 23 19
32 29 29 30 33 31 32 32 32 30 28 27 27 27 26 24 23 24 27 25 30 32 35 41 44 49 46 59 45 40 37 32 26 23 21 20 20 25 28 27 24 19 19
33 28 27 29 28 28 29 30 30 31 30 28 29 27 24 25 22 22 18 19 26 22 27 30 28 45 47 41 59 46 46 45 31 21 19 19 18 21 23 27 26 21 17
31 28 27 28 29 27 28 31 31 29 29 32 33 26 22 19 21 20 25 27 25 18 18 29 32 58 71 65 31 37 57 43 34 30 21 19 17 16 16 17 22 24 22
31 31 26 29 29 27 28 38 32 31 31 29 31 30 24 10 16 20 19 18 23 13 17 21 27 29 56 35 38 43 36 47 32 47 36 22 17 15 15 16 18 20 24
31 30 27 28 30 27 32 36 35 32 31 34 32 26 11 6 10 14 13 15 22 14 14 17 15 7 6 22 16 17 26 29 7 33 38 27 14 16 19 19 21 23 26
30 28 31 28 30 27 31 36 36 31 26 30 29 27 14 4 22 18 15 16 14 11 10 12 7 3 4 7 10 3 13 7 22 36 16 19 22 26 25 26 26 28 28
26 29 31 30 35 29 32 30 31 29 24 22 25 20 17 17 34 24 12 15 16 14 10 6 8 2 2 5 12 14 14 12 14 19 14 21 25 30 33 31 30 31 32
26 29 29 33 32 29 39 34 31 25 26 23 21 19 16 21 17 20 25 22 18 19 17 8 2 4 0 5 11 13 5 13 16 20 24 28 31 33 38 33 34 33 33
24 28 26 27 30 28 38 35 28 31 26 24 21 25 20 20 16 26 30 31 25 18 15 13 14 14 7 7 9 8 12 19 20 27 26 28 30 34 36 36 39 41 41
20 31 24 25 26 28 30 30 34 30 25 25 24 22 22 23 24 22 24 26 24 20 17 18 13 5 4 9 9 16 19 21 22 26 29 30 31 33 35 38 42 41 43
21 25 23 23 24 27 27 31 26 27 27 24 28 28 24 23 28 27 22 22 21 18 17 14 14 2 5 8 12 18 26 19 22 27 30 31 33 32 33 34 37 39 44
21 24 21 20 22 25 29 24 26 27 34 28 31 28 23 25 28 31 26 26 27 19 14 8 7 4 5 11 22 20 15 27 21 21 24 26 29 35 36 36 38 39 43
19 22 21 20 20 23 23 25 24 29 30 29 29 29 33 24 25 28 27 25 23 20 21 13 12 6 4 9 24 16 13 23 18 16 17 20 25 30 35 40 41 43 44
19 23 23 21 20 23 27 26 26 25 30 30 29 31 33 34 29 27 24 26 24 23 17 21 18 15 10 12 23 20 17 27 27 29 31 30 29 30 35 39 41 42 41
20 20 22 22 22 22 25 28 28 30 29 29 27 26 29 31 31 33 27 21 21 25 28 29 25 20 17 16 15 23 25 28 25 32 37 37 37 40 42 45 48 51 51
22 21 21 22 22 24 25 28 28 29 32 28 25 25 26 28 30 31 29 26 27 26 23 26 24 26 24 20 21 24 21 20 20 24 32 35 32 31 33 36 40 47 52
23 23 23 23 23 24 25 27 29 30 31 30 26 25 25 24 25 26 24 26 26 29 25 25 26 25 26 26 29 24 24 24 20 22 36 36 35 39 38 39 43 50 52
23 24 25 26 27 27 26 27 29 32 32 32 33 27 25 25 24 25 22 22 28 25 28 28 30 28 24 26 21 21 22 23 27 25 30 35 36 41 39 44 59 59 60
22 26 27 28 29 31 32 32 39 37 38 39 36 33 28 29 40 33 29 27 30 26 26 29 30 29 30 24 23 26 30 30 31 30 28 28 38 36 33 44 75 63 60
25 26 27 30 33 33 35 43 44 47 47 42 39 39 33 37 38 35 38 31 29 34 31 26 28 31 30 26 24 26 28 36 40 28 28 32 34 30 44 63 61 53 54
31 32 32 31 34 36 38 50 54 49 50 45 42 43 39 31 36 32 32 38 42 37 33 33 34 27 24 22 25 29 30 32 36 29 27 32 39 41 46 67 49 52 43
34 36 36 38 41 41 44 52 56 53 51 43 43 45 46 41 37 37 35 37 38 38 35 34 32 27 25 27 30 31 38 41 48 38 22 31 34 40 51 61 37 44 35
38 41 41 47 50 54 50 53 52 48 39 43 39 43 43 40 38 40 44 42 42 42 32 33 39 36 34 33 39 45 37 31 32 25 18 25 37 32 47 44 32 45 35
46 44 50 55 59 62 61 53 53 47 40 41 38 41 47 42 36 41 45 44 44 41 38 33 32 34 32 33 31 34 31 25 30 32 25 31 34 36 55 35 44 39 31
Wind_Direction_850mb
1 358 354 352 347 346 342 339 336 336 339 337 332 319 306 295 295 295 299 284 276 265 262 246 240 242 235 231 237 228 225 221 219 224 227 228 230 232 237 238 233 231 232
359 357 351 350 345 349 345 341 336 335 333 329 328 327 323 311 295 293 288 303 293 282 276 259 245 241 243 224 232 222 220 212 205 207 216 221 227 228 230 234 237 233 228
355 5 349 349 347 355 352 348 347 343 334 330 327 330 330 324 313 307 302 285 295 296 280 264 248 236 228 226 219 218 212 206 209 204 212 218 220 223 224 229 231 230 226
353 7 352 352 2 356 354 353 350 348 345 339 328 328 328 334 329 318 321 301 289 281 311 274 264 242 225 228 219 214 211 201 199 213 222 224 217 221 221 223 228 226 214
359 9 355 357 14 356 355 355 354 348 345 339 334 326 320 333 336 333 332 323 303 279 302 311 292 257 260 319 305 227 205 197 207 204 208 210 206 201 205 218 226 223 216
1 4 1 1 7 353 351 353 4 350 348 337 339 327 301 296 330 342 336 335 343 308 307 313 336 269 239 298 297 294 198 210 231 205 196 196 209 218 221 227 237 235 224
1 1 3 0 1 4 353 352 355 351 351 344 341 335 320 2 343 343 348 347 346 351 347 347 327 347 255 292 332 282 279 240 239 203 191 176 214 248 257 256 255 248 243
2 5 8 357 4 5 349 353 356 354 354 353 352 338 338 320 354 329 320 332 325 350 5 335 351 53 183 189 178 296 268 306 244 263 306 287 276 265 270 270 264 257 249
6 5 5 354 15 5 353 353 353 351 359 5 12 6 354 351 335 337 324 328 329 329 347 352 334 12 197 127 160 162 166 176 188 217 210 228 265 274 277 272 263 254 251
4 9 6 359 0 8 343 355 356 8 7 7 9 3 347 316 325 328 324 315 318 313 298 285 276 288 114 222 226 228 242 232 228 232 240 245 249 259 265 262 258 259 257
357 0 5 6 360 5 350 352 7 7 3 1 356 347 349 337 334 330 326 324 313 288 268 279 269 251 228 238 240 251 225 236 242 252 250 254 254 250 254 255 256 260 264
351 335 6 7 1 4 356 359 8 8 1 360 1 358 344 339 335 331 327 329 327 326 312 299 278 267 281 317 298 285 279 276 269 265 262 261 261 260 257 258 261 260 261
340 339 359 360 5 3 5 8 2 13 0 358 354 352 349 337 331 332 322 324 309 317 310 290 314 333 289 263 280 301 300 284 273 269 265 262 264 265 266 264 263 263 264
333 336 344 351 358 2 5 18 354 4 2 3 354 349 358 345 335 334 336 332 328 336 298 306 274 309 311 267 280 290 306 290 288 279 279 276 267 266 268 269 272 273 271
330 326 333 335 346 352 355 7 356 357 355 354 349 341 349 346 337 337 335 330 333 327 331 332 323 298 266 318 293 295 284 289 290 295 298 296 284 272 270 275 274 275 275
320 328 325 323 332 335 343 349 357 351 350 353 353 352 357 350 346 332 334 331 331 331 321 335 323 320 291 291 287 291 272 280 297 293 297 291 289 288 287 280 280 278 276
317 318 321 318 319 325 329 334 341 341 336 349 348 345 354 347 355 349 331 327 329 327 321 328 338 323 322 310 277 286 287 279 273 291 290 293 291 291 287 283 282 278 276
308 312 313 315 313 315 319 328 332 332 333 330 337 341 343 340 348 348 357 335 325 322 315 309 315 315 319 313 309 308 295 295 297 279 287 297 300 296 293 295 291 284 278
300 307 309 309 310 308 314 321 322 325 325 323 319 322 326 333 341 338 348 345 338 329 322 310 317 306 297 291 305 313 305 295 287 287 302 305 312 311 303 299 295 293 287
299 300 306 305 304 305 307 307 316 308 310 315 312 302 301 310 310 319 329 340 329 329 324 317 312 306 298 292 296 289 301 293 297 300 295 303 301 316 312 304 313 302 287
291 298 297 303 310 307 307 296 298 300 303 305 305 304 300 283 293 305 311 311 313 317 319 321 317 320 319 313 312 307 308 316 308 301 301 303 308 303 299 298 305 303 294
285 289 292 297 303 302 299 304 312 303 303 302 297 298 295 300 307 303 311 308 307 299 293 301 314 314 322 323 323 317 314 320 318 314 305 304 307 294 292 306 307 304 293
281 281 284 288 292 295 301 303 309 306 299 298 293 291 293 291 290 286 290 309 313 309 291 286 286 290 299 306 305 310 311 317 308 300 299 298 309 304 308 324 308 313 301
291 289 285 284 288 292 294 299 306 303 298 293 297 291 287 287 286 286 291 293 296 297 297 281 293 282 289 294 295 298 304 311 308 310 286 292 317 308 307 322 313 319 310
291 291 288 287 286 289 292 290 298 299 291 290 292 287 304 286 285 288 295 292 295 295 295 284 281 280 281 286 289 289 292 307 306 320 326 312 321 312 321 327 315 334 319
290 290 289 287 286 286 288 288 287 288 285 289 291 294 291 300 296 296 294 296 293 294 295 290 276 279 287 286 289 274 281 293 297 304 310 322 319 313 336 333 326 333 329